TimeBST,TemperatureF,Dew PointF,Humidity,Sea Level PressureIn,VisibilityMPH,Wind Direction,Wind SpeedMPH,Gust SpeedMPH,PrecipitationIn,Events,Conditions,WindDirDegrees,DateUTC
12:20 AM,55.4,55.4,100,29.83,4.3,Calm,Calm,-,N/A,Fog,Shallow Fog,0,2013-07-25 23:20:00
12:50 AM,55.4,55.4,100,29.83,4.3,Calm,Calm,-,N/A,Fog,Patches of Fog,0,2013-07-25 23:50:00
1:20 AM,53.6,53.6,100,29.83,0.1,Variable,2.3,-,N/A,Fog,Fog,0,2013-07-26 00:20:00
1:50 AM,53.6,53.6,100,29.83,3.7,Variable,2.3,-,N/A,Fog,Shallow Fog,0,2013-07-26 00:50:00
2:20 AM,55.4,55.4,100,29.83,4.3,Calm,Calm,-,N/A,,Scattered Clouds,0,2013-07-26 01:20:00
2:50 AM,53.6,53.6,100,29.83,4.3,Calm,Calm,-,N/A,Fog,Fog,0,2013-07-26 01:50:00
3:20 AM,53.6,53.6,100,29.83,4.3,Calm,Calm,-,N/A,Fog,Shallow Fog,0,2013-07-26 02:20:00
3:50 AM,53.6,53.6,100,29.83,4.3,Calm,Calm,-,N/A,Fog,Fog,0,2013-07-26 02:50:00
4:20 AM,55.4,55.4,100,29.83,4.3,Calm,Calm,-,N/A,Fog,Shallow Fog,0,2013-07-26 03:20:00
4:50 AM,57.2,57.2,100,29.83,5.0,Variable,2.3,-,N/A,Fog,Patches of Fog,0,2013-07-26 03:50:00
5:20 AM,57.2,57.2,100,29.83,6.2,ENE,3.5,-,N/A,Fog,Mostly Cloudy,60,2013-07-26 04:20:00
5:50 AM,57.2,57.2,100,29.83,6.2,Variable,2.3,-,N/A,Fog,Scattered Clouds,0,2013-07-26 04:50:00
6:20 AM,57.2,57.2,100,29.83,6.2,Calm,Calm,-,N/A,Fog,Scattered Clouds,0,2013-07-26 05:20:00
6:50 AM,59.0,59.0,100,29.83,-9999.0,Calm,Calm,-,N/A,,Mostly Cloudy,0,2013-07-26 05:50:00
7:20 AM,60.8,60.8,100,29.83,6.2,Variable,2.3,-,N/A,Fog,Mostly Cloudy,0,2013-07-26 06:20:00
7:50 AM,60.8,60.8,100,29.83,6.2,Calm,Calm,-,N/A,Fog,Mostly Cloudy,0,2013-07-26 06:50:00
8:20 AM,64.4,60.8,88,29.83,6.2,SW,6.9,-,N/A,,Mostly Cloudy,220,2013-07-26 07:20:00
8:50 AM,66.2,59.0,78,29.83,6.2,SSW,11.5,-,N/A,,Mostly Cloudy,200,2013-07-26 07:50:00
9:20 AM,66.2,59.0,78,29.83,6.2,South,10.4,-,N/A,,Mostly Cloudy,190,2013-07-26 08:20:00
9:50 AM,66.2,59.0,78,29.83,6.2,SW,10.4,-,N/A,,Scattered Clouds,220,2013-07-26 08:50:00
10:20 AM,68.0,59.0,73,29.83,6.2,SW,10.4,-,N/A,,Scattered Clouds,220,2013-07-26 09:20:00
10:50 AM,68.0,59.0,73,29.83,6.2,SW,12.7,-,N/A,,Scattered Clouds,220,2013-07-26 09:50:00
11:20 AM,69.8,59.0,68,29.83,6.2,WSW,12.7,-,N/A,,Scattered Clouds,240,2013-07-26 10:20:00
11:50 AM,71.6,59.0,64,29.83,6.2,SW,13.8,-,N/A,,Scattered Clouds,230,2013-07-26 10:50:00
12:20 PM,71.6,59.0,64,29.83,6.2,SW,12.7,-,N/A,,Scattered Clouds,220,2013-07-26 11:20:00
12:50 PM,71.6,57.2,60,29.83,6.2,WSW,9.2,-,N/A,,Scattered Clouds,240,2013-07-26 11:50:00
1:20 PM,73.4,57.2,57,29.83,6.2,SW,6.9,-,N/A,,Partly Cloudy,230,2013-07-26 12:20:00
1:50 PM,69.8,59.0,68,29.83,6.2,WNW,6.9,-,N/A,,Scattered Clouds,300,2013-07-26 12:50:00
2:20 PM,66.2,57.2,73,29.83,6.2,NW,8.1,-,N/A,,Scattered Clouds,310,2013-07-26 13:20:00
2:50 PM,66.2,57.2,73,29.83,6.2,West,4.6,-,N/A,Thunderstorm,Scattered Clouds,280,2013-07-26 13:50:00
3:20 PM,64.4,59.0,83,29.83,6.2,West,4.6,-,N/A,Rain,Light Rain Showers,260,2013-07-26 14:20:00
3:50 PM,64.4,59.0,83,29.83,6.2,West,6.9,-,N/A,,Scattered Clouds,270,2013-07-26 14:50:00
4:20 PM,62.6,57.2,82,29.83,6.2,West,5.8,-,N/A,,Scattered Clouds,280,2013-07-26 15:20:00
4:50 PM,66.2,57.2,73,29.83,6.2,West,6.9,-,N/A,,Partly Cloudy,260,2013-07-26 15:50:00
5:20 PM,68.0,55.4,64,29.83,6.2,WSW,5.8,-,N/A,,Scattered Clouds,240,2013-07-26 16:20:00
5:50 PM,66.2,57.2,73,29.83,6.2,SSW,11.5,-,N/A,,Partly Cloudy,200,2013-07-26 16:50:00
6:20 PM,68.0,57.2,68,29.83,6.2,SSW,6.9,-,N/A,,Partly Cloudy,210,2013-07-26 17:20:00
6:50 PM,69.8,57.2,64,29.83,6.2,SW,13.8,-,N/A,,Partly Cloudy,230,2013-07-26 17:50:00
7:20 PM,69.8,57.2,64,29.83,6.2,SW,11.5,-,N/A,,Partly Cloudy,230,2013-07-26 18:20:00
7:50 PM,68.0,57.2,68,29.83,6.2,SW,10.4,-,N/A,,Partly Cloudy,230,2013-07-26 18:50:00
8:20 PM,68.0,57.2,68,29.83,6.2,SW,9.2,-,N/A,,Partly Cloudy,230,2013-07-26 19:20:00
8:50 PM,64.4,57.2,77,29.83,6.2,WSW,8.1,-,N/A,,Partly Cloudy,250,2013-07-26 19:50:00
9:20 PM,62.6,57.2,82,29.83,6.2,WSW,8.1,-,N/A,,Partly Cloudy,250,2013-07-26 20:20:00
9:50 PM,60.8,57.2,88,29.83,6.2,WSW,6.9,-,N/A,,Partly Cloudy,250,2013-07-26 20:50:00
10:20 PM,60.8,57.2,88,29.83,6.2,West,5.8,-,N/A,,Partly Cloudy,270,2013-07-26 21:20:00
10:50 PM,60.8,55.4,82,29.83,-9999.0,WSW,5.8,-,N/A,,Clear,250,2013-07-26 21:50:00
11:20 PM,59.0,55.4,88,29.83,6.2,SW,4.6,-,N/A,,Unknown,230,2013-07-26 22:20:00
11:50 PM,57.2,55.4,94,29.86,-9999.0,WSW,4.6,-,N/A,,Clear,240,2013-07-26 22:50:00